Regional Weather Roundup
Issued by NWS Kansas City/Pleasant Hill, MO

Home | Current Version | Previous Version | Graphics & Text | Print | Product List | Glossary Off
Versions: 1 2 3 4 5 6 7 8 9 10 11 12 13 14 15 16 17 18 19 20 21 22 23 24 25 26 27 28 29 30 31 32 33 34 35 36 37 38 39 40 41 42 43 44 45 46 47 48 49 50

000
ASUS43 KEAX 020110
RWREAX

WEATHER ROUNDUP FOR EASTERN KANSAS AND NORTHWEST MISSOURI
NATIONAL WEATHER SERVICE KANSAS CITY/PLEASANT HILL MO
800 PM CDT MON SEP 01 2014

KSZ040-057-103>105-MOZ028-029-037-043-020200-
...KANSAS CITY METROPOLITAN AREA...

CITY           SKY/WX    TMP DP  RH WIND       PRES   REMARKS
K.C. INTL      MOCLDY    75  70  84 CALM      29.85F
K.C. DOWNTOWN  CLOUDY    78  68  71 N3        29.84F
LEES SUMMIT    CLOUDY    76  67  73 CALM      29.86F
OLATHE - IXD   PTCLDY    74  68  81 NE3       29.86S
OLATHE - OJC   CLOUDY    75  68  78 CALM      29.85S
LAWRENCE       PTCLDY   N/A N/A N/A NE3       29.84F

$$

MOZ001>008-011>017-020>025-030>033-038>040-044>046-053-054-020200-
...NORTHERN AND CENTRAL MISSOURI...

CITY           SKY/WX    TMP DP  RH WIND       PRES   REMARKS
ST. JOSEPH     PTCLDY    73  68  84 N8        29.85F
MOSBY          CLOUDY    77  68  73 CALM      29.85F
WHITEMAN AFB   LGT RAIN  71  70  97 SE2       29.87F
CLINTON        CLOUDY    73  72  94 CALM      29.87R
SEDALIA        TSTM      72  70  93 SE5       29.88R FOG
WARSAW         NOT AVBL
MARSHALL       CLOUDY    75  73  94 CALM      29.88S THUNDER
CHILLICOTHE      N/A     75  70  84 CALM      29.86S
MOBERLY        MOCLDY    77  66  69 S5        29.87F
KIRKSVILLE     PTCLDY    72  69  90 W3        29.86S

$$

MOZ041-047>049-056>058-063>065-088>090-097-020200-
...EASTERN AND SOUTHERN MISSOURI...

CITY           SKY/WX    TMP DP  RH WIND       PRES   REMARKS
ST. LOUIS INTL CLOUDY    77  70  78 N3        29.89F
SPIRIT OF STL  CLOUDY    75  72  90 SE3       29.87S
COLUMBIA       LGT RAIN  71  69  93 NE7       29.87F
JEFFERSON CITY LGT RAIN  72  69  90 VRB3      29.86F
MEXICO         TSTM     N/A N/A N/A S5        29.89R
HANNIBAL       CLOUDY    77  68  73 CALM      29.86S
ROLLA          CLOUDY    77  67  71 S7        29.88F
LEBANON        PTCLDY    77  70  78 SE8       29.87F
OSAGE BEACH    MOCLDY    77  70  78 SE3       29.85F
SPRINGFIELD    MOCLDY    82  70  66 S13       29.85S
BRANSON        PTCLDY    81  70  69 S6        29.91S
NEVADA         LGT RAIN  72  72 100 E5        29.83F
JOPLIN         CLOUDY    82  72  71 CALM      29.82R THUNDER
WEST PLAINS    CLEAR     80  68  66 S6        29.92F

$$

IAZ060-094-KSZ022-034>040-054-083-096-NEZ052-066-093-020200-
...KANSAS...SOUTHEAST NEBRASKA AND IOWA...

CITY           SKY/WX    TMP DP  RH WIND       PRES   REMARKS
TOPEKA         LGT RAIN  75  72  90 N5        29.83F
MANHATTAN      PTCLDY    76  68  76 CALM      29.85F
EMPORIA        CLOUDY    74  69  85 NE6       29.84F
CHANUTE        PTCLDY    79  71  76 E7        29.81R
WICHITA        CLOUDY    79  69  71 NE16      29.84R
OMAHA          CLOUDY    74  61  63 CALM      29.86S
LINCOLN        MOCLDY    72  65  78 W5        29.89R
FALLS CITY     MOCLDY    73  66  78 N5        29.86F
LAMONI         MOCLDY    70  67  90 W7        29.89R
DES MOINES     CLOUDY    73  64  73 W5        29.85S

$$



USA.gov is the U.S. government's official web portal to all federal, state and local government web resources and services.